Location: Ambatotampy
(18.8181°S, 47.6186°E)
Time: 23:56:39
(UTC+00:00)

BREEZE M DEB (TANK) - Pass Details

Date: 21 January 2021
Orbit: 334 x 13629 km, 49.5° (Epoch: 22 February)

Event Time Altitude Azimuth Distance (km) Brightness Sun altitude
Exits shadow 01:07:05 44° 264° (W) 672 2.9 -18.3°
Maximum altitude 01:07:48 57° 314° (NW) 626 2.7 -18.2°
Drops below altitude 10° 01:13:28 10° 33° (NNE) 3,042 6.6 -17.0°
Sets 01:18:21 0° 36° (NE) 5,296 7.9 -16.0°
